Weather History for K9V9 - October, 2013

Change the Weather History Date:

Friday, October 18, 2013

  Actual Average Record
Temperature  
Mean Temperature 38 °F -  
Max Temperature 50 °F 59 °F 87 °F (2003)
Min Temperature 30 °F 35 °F 24 °F (2014)
Degree Days  
Heating Degree Days 27    
Moisture  
Dew Point 31 °F    
Average Humidity 72    
Maximum Humidity 85    
Minimum Humidity 54    
Precipitation  
Precipitation 0.00 in - - ()
Sea Level Pressure  
Sea Level Pressure 30.07 in    
Wind  
Wind Speed 8 mph (WNW)    
Max Wind Speed 18 mph    
Max Gust Speed 25 mph    
Averages and records for this station are not official NWS values.
T = Trace of Precipitation, MM = Missing Value Source: NWS Daily Summary

Daily Weather History Graph

Daily Weather History Graph

Search for Another Location

Airport or City:

Trip Planner

Search our weather history database for the weather conditions in past years. The results will help you decide how hot, cold, wet, or windy it might be!

Date:

Astronomy

Oct. 18, 2013 Rise Set
Actual Time 7:55 AM CDT 6:48 PM CDT
Civil Twilight 7:26 AM CDT 7:17 PM CDT
Nautical Twilight 6:53 AM CDT 7:50 PM CDT
Astronomical Twilight 6:19 AM CDT 8:23 PM CDT
Moon 6:38 PM CDT (10/18) 7:33 AM CDT (10/18)
Length of Visible Light 11h 50m
Length of Day
10h 52m
Full, 100% of the Moon is Illuminated
Oct 18
Full
Oct 18
Full
Oct 26
Last Quarter
Nov 3
New
Nov 9
First Quarter

Hourly Weather History & Observations

Time (CDT) Temp. Windchill Dew Point Humidity Pressure Visibility Wind Dir Wind Speed Gust Speed Precip Events Conditions
12:52 AM 34.0 °F 29.8 °F 28.9 °F 82% 30.11 in - West 4.6 mph - N/A   Unknown
1:52 AM 34.0 °F 29.8 °F 28.0 °F 79% 30.12 in - West 4.6 mph - N/A   Unknown
2:52 AM 34.0 °F 28.0 °F 28.0 °F 79% 30.12 in - West 6.9 mph - N/A   Unknown
3:52 AM 33.1 °F 25.5 °F 28.0 °F 82% 30.11 in - WNW 9.2 mph - N/A   Unknown
4:52 AM 32.0 °F 24.2 °F 27.0 °F 82% 30.11 in - West 9.2 mph - N/A   Unknown
5:52 AM 33.1 °F 23.9 °F 27.0 °F 78% 30.12 in - West 12.7 mph - N/A   Unknown
6:52 AM 30.0 °F 22.4 °F 26.1 °F 85% 30.12 in - West 8.1 mph - N/A   Unknown
7:52 AM 30.9 °F 21.7 °F 26.1 °F 82% 30.11 in - West 11.5 mph - N/A   Unknown
8:52 AM 34.0 °F 28.0 °F 27.0 °F 75% 30.12 in - West 6.9 mph - N/A   Unknown
9:52 AM 39.0 °F 32.3 °F 28.9 °F 67% 30.13 in - West 10.4 mph - N/A   Unknown
10:52 AM 43.0 °F 39.5 °F 30.9 °F 62% 30.12 in - West 5.8 mph - N/A   Unknown
11:52 AM 46.0 °F 40.2 °F 33.1 °F 61% 30.11 in - NW 12.7 mph - N/A   Unknown
12:52 PM 46.9 °F - 33.1 °F 59% 30.09 in - NW 18.4 mph 21.9 mph N/A   Unknown
1:52 PM 46.9 °F - 33.1 °F 59% 30.07 in - WNW 16.1 mph 20.7 mph N/A   Unknown
2:52 PM 46.9 °F - 33.1 °F 59% 30.05 in - NW 9.2 mph - N/A   Unknown
3:52 PM 46.9 °F - 30.9 °F 54% 30.04 in - NW 13.8 mph - N/A   Unknown
4:52 PM 46.0 °F 39.3 °F 30.0 °F 54% 30.04 in - WNW 16.1 mph 25.3 mph N/A   Unknown
5:52 PM 45.0 °F 42.6 °F 36.0 °F 71% 30.04 in - NNW 4.6 mph - N/A   Unknown
6:52 PM 39.9 °F 36.7 °F 34.0 °F 79% 30.04 in - West 4.6 mph - N/A   Unknown
7:52 PM 42.1 °F 36.6 °F 32.0 °F 67% 30.04 in - WNW 9.2 mph - N/A   Unknown
8:52 PM 39.0 °F 32.3 °F 33.1 °F 79% 30.02 in - West 10.4 mph - N/A   Unknown
9:52 PM 39.0 °F 32.8 °F 33.1 °F 79% 30.00 in - WSW 9.2 mph - N/A   Unknown
10:52 PM 39.9 °F 34.5 °F 33.1 °F 77% 29.98 in - West 8.1 mph - N/A   Unknown
11:52 PM 37.0 °F 33.3 °F 32.0 °F 82% 29.96 in - West 4.6 mph - N/A   Unknown